Presure
228 260 268 215 239 240 237 193 197 190 184 191 195 182 186 188 178 175 175 172 170 160 179 120 174 128 186 188 175 181 177 186 177 193 98 185 104 194 197 199 200 202 202 152 202 204 167
251 201 263 224 221 233 227 214 194 191 187 187 184 181 191 182 187 174 180 185 190 176 162 180 182 166 179 139 177 184 168 173 195 190 210 201 129 195 192 200 210 177 213 209 205 163 130
251 282 260 248 218 237 225 240 222 194 233 194 186 178 187 191 193 213 202 194 183 189 180 188 184 191 179 176 177 178 196 200 184 179 195 197 190 189 196 195 210 212 217 205 156 195 130
268 284 266 292 229 214 225 225 229 235 219 190 179 185 180 173 184 210 201 193 189 189 200 183 180 179 186 172 167 205 173 199 200 194 198 192 191 185 203 200 202 206 217 207 208 163 207
271 271 265 267 206 221 221 236 219 238 218 229 215 194 186 189 165 175 195 208 206 209 212 201 189 184 177 189 197 191 201 195 199 196 184 192 191 185 198 204 204 218 217 210 198 203 195
276 263 254 248 236 220 217 235 213 226 222 220 223 209 227 208 178 197 194 216 207 202 199 203 209 202 191 188 191 195 193 197 193 186 188 185 182 194 198 202 216 215 213 209 201 198 200
130 268 258 252 239 223 221 209 226 208 217 208 212 208 210 193 200 194 201 195 198 194 197 195 194 133 188 197 195 195 198 185 186 183 182 184 185 193 195 215 214 208 212 202 202 197 199
349 249 256 238 262 223 237 236 226 208 216 224 224 218 197 229 219 219 212 209 200 194 192 196 189 187 193 193 189 193 192 187 183 186 182 183 187 188 192 213 207 206 205 203 200 205 200
337 249 252 245 248 223 206 225 212 220 211 214 210 206 210 190 203 200 200 202 199 196 196 193 192 194 146 190 190 189 184 182 185 178 180 177 193 191 192 208 204 207 205 201 202 197 194
332 273 248 244 228 195 218 236 228 221 208 215 219 205 203 194 203 197 197 196 188 205 193 193 195 186 190 189 179 182 187 179 180 187 185 186 192 189 194 201 204 202 203 202 202 200 194
321 300 245 244 253 219 215 233 214 214 207 211 212 218 207 202 197 198 203 196 195 209 196 189 194 191 183 189 180 180 178 179 184 185 183 189 193 194 196 205 205 201 199 197 198 200 196
316 253 233 253 222 210 212 204 225 215 207 206 208 214 213 215 207 204 205 209 178 164 197 195 196 189 190 182 179 180 177 179 179 181 185 188 187 203 200 203 205 198 198 199 197 197 191
296 277 261 245 225 228 218 218 207 214 214 208 208 208 210 212 203 202 204 205 195 191 188 186 188 190 187 190 180 176 182 184 179 185 184 189 205 203 203 201 199 199 199 194 193 194 195
289 267 252 235 219 217 231 215 202 225 208 207 206 199 203 201 199 197 90 197 194 193 190 190 186 185 182 179 183 186 188 189 181 186 189 198 194 194 197 195 189 196 196 196 195 190 185
281 260 232 238 217 206 222 217 203 217 207 197 201 198 196 195 195 193 197 194 191 192 129 188 186 186 185 184 187 188 186 189 188 195 197 198 197 188 183 194 192 195 193 192 191 190 192
258 256 224 208 210 212 223 213 216 209 208 198 199 197 191 197 194 192 189 186 191 190 187 185 185 187 188 186 185 186 185 195 197 200 196 196 194 192 191 197 193 189 191 191 204 211 209
249 248 241 149 204 236 234 224 218 208 209 188 201 200 198 192 188 188 149 191 186 186 189 189 189 192 188 186 188 193 193 195 194 195 190 194 194 193 208 207 209 202 203 203 210 224 224
253 235 233 249 228 233 233 208 218 209 207 203 206 201 201 196 196 196 192 193 177 175 183 193 196 195 190 187 192 187 194 191 191 185 188 190 208 203 205 208 220 214 212 208 202 198 198
227 230 207 238 234 239 234 226 215 213 207 196 206 206 206 201 191 189 191 191 193 193 190 197 199 204 193 195 193 196 197 189 191 195 201 207 198 202 200 196 201 205 227 223 223 197 194
232 231 246 244 245 219 231 213 218 213 174 201 196 201 198 182 193 201 203 203 204 204 204 201 194 198 198 196 195 193 195 198 198 198 192 199 195 198 203 211 209 199 194 188 197 201 202
219 227 231 242 230 238 217 225 208 210 204 191 190 197 199 198 196 197 194 197 199 195 195 196 197 198 197 197 194 194 198 196 200 195 194 197 196 200 188 192 201 214 217 202 199 214 225
230 227 233 247 231 225 232 208 217 214 192 200 209 198 159 198 198 194 194 194 192 193 195 197 193 196 201 199 192 193 198 201 201 192 202 203 193 199 208 204 209 230 228 199 211 216 238
215 224 209 236 237 224 229 214 204 210 200 205 192 202 208 189 192 198 194 193 196 197 189 195 197 205 205 206 206 208 203 199 203 207 200 196 204 205 210 220 214 231 237 218 232 227 205
208 205 210 210 219 227 228 228 207 206 200 201 194 200 200 204 200 198 197 191 200 199 200 198 198 199 199 204 202 197 199 205 207 209 213 219 241 241 260 231 236 222 214 202 228 210 211
221 222 226 199 190 198 202 212 218 218 219 228 217 211 205 200 201 208 206 205 194 197 202 202 208 206 209 197 197 207 212 228 235 232 245 227 251 208 212 203 227 244 252 262 277 275 280
201 196 196 207 215 209 206 213 202 210 212 217 212 212 212 213 218 221 218 215 212 208 177 188 199 206 210 210 232 226 255 219 207 229 266 206 201 208 253 235 267 286 276 271 269 265 257
202 220 235 209 210 195 217 232 204 206 215 197 198 194 181 192 197 198 202 202 199 190 211 228 228 249 248 249 241 237 235 239 221 223 249 254 256 262 263 266 273 268 259 254 250 234 225
219 222 200 199 193 195 205 211 203 206 207 200 203 226 215 244 249 213 211 227 238 254 237 221 248 234 228 237 205 207 253 225 225 252 252 261 261 260 260 260 271 237 218 266 244 243 272
203 211 243 236 237 198 204 219 227 224 216 234 236 234 229 236 232 227 245 226 233 243 234 230 232 213 205 256 207 250 248 253 253 263 264 263 255 255 253 240 238 262 264 261 262 271 344
Wind_Speed
27 35 28 41 33 39 46 65 69 66 65 68 70 71 75 77 75 74 71 69 66 61 74 33 70 41 70 68 66 65 67 69 61 64 26 47 30 45 43 40 39 38 37 32 34 34 33
39 31 29 38 38 40 45 59 68 66 65 66 66 64 69 69 76 67 73 78 76 68 59 72 71 61 68 44 63 66 56 61 60 55 44 44 36 43 43 41 37 34 34 35 34 32 31
44 36 31 36 43 38 44 43 50 65 50 61 63 60 68 71 70 69 72 74 69 71 69 74 68 67 66 63 63 62 72 57 61 44 48 44 45 45 44 43 39 35 33 34 40 34 34
49 33 32 37 40 45 43 44 46 48 53 59 61 64 61 55 60 62 66 67 67 68 68 67 64 64 67 60 57 60 62 54 49 49 45 46 45 46 43 44 41 38 35 33 31 41 36
46 35 34 38 40 43 42 43 46 43 51 48 57 64 65 66 50 57 60 62 63 66 64 64 69 67 65 70 61 64 52 50 46 45 53 44 44 46 44 42 42 38 36 34 34 32 36
39 36 34 37 42 44 44 44 45 45 48 51 50 55 47 53 55 55 57 54 57 57 58 57 49 51 62 61 59 55 49 46 44 50 47 48 50 45 44 44 41 37 36 35 36 34 35
24 35 35 36 42 44 44 46 46 47 48 50 50 53 51 58 54 54 51 52 52 55 55 54 53 42 58 53 51 50 46 47 48 51 51 50 50 47 45 43 39 38 36 37 37 36 36
33 36 34 40 39 43 45 47 47 46 47 45 44 42 53 44 45 42 44 46 47 51 54 50 54 57 55 48 52 47 44 47 52 50 52 52 52 50 48 41 40 39 38 37 39 36 38
31 35 35 39 43 43 42 44 43 45 46 47 46 46 43 47 43 45 47 47 49 51 52 55 55 54 44 50 49 45 48 51 50 54 54 55 53 51 51 44 43 41 41 40 38 39 41
28 33 36 38 41 42 42 46 45 45 46 47 47 45 47 46 47 49 50 51 51 51 53 54 52 53 51 49 50 49 49 53 55 54 55 55 55 53 52 50 45 44 44 42 41 40 42
29 36 36 37 37 41 42 43 43 45 45 44 44 46 47 48 47 48 51 51 50 48 50 51 50 51 52 50 52 52 55 56 57 57 56 57 55 55 54 48 46 46 48 47 45 44 41
30 32 35 36 42 40 43 43 45 44 45 44 44 45 45 44 47 48 49 49 43 42 50 50 50 52 50 52 55 57 58 59 59 60 59 58 57 53 54 51 48 50 50 49 49 47 44
29 33 34 37 40 40 42 39 40 44 44 44 45 44 42 44 45 44 45 46 47 48 49 51 51 51 52 54 59 59 61 61 61 61 62 60 54 54 53 53 54 54 53 54 50 51 49
28 35 37 36 39 40 41 40 42 42 42 43 45 44 42 42 44 46 29 47 49 50 50 51 54 56 58 58 60 60 61 62 64 63 63 56 56 58 57 57 59 57 57 59 52 54 55
36 38 35 37 37 40 42 40 44 41 45 47 46 46 45 46 46 46 46 48 49 49 50 53 55 55 58 61 60 61 63 64 67 64 61 59 57 63 65 63 64 63 64 65 63 62 58
35 36 37 38 39 41 41 43 44 44 47 50 49 49 49 48 47 48 49 50 50 52 56 58 58 58 60 61 63 65 65 64 64 63 65 63 62 65 67 67 69 69 69 70 70 66 65
34 35 36 31 43 41 46 45 45 46 46 46 49 50 50 51 51 51 50 54 56 57 58 60 60 59 61 64 66 65 64 66 68 68 69 69 69 68 67 69 71 72 72 74 73 73 73
37 34 38 39 39 37 48 43 47 48 48 48 48 51 50 53 52 53 56 56 59 59 62 62 61 62 65 66 67 69 70 72 72 73 73 74 69 69 68 69 70 72 73 75 76 71 69
37 34 44 35 40 41 49 50 50 51 51 49 49 51 51 53 56 58 59 60 61 63 64 64 64 64 67 69 70 70 71 76 77 76 76 74 72 74 73 76 76 76 79 82 83 76 75
32 31 35 36 37 44 49 47 51 51 46 50 51 53 54 55 55 54 55 58 60 61 62 64 67 67 68 70 72 73 76 78 78 78 77 78 78 80 79 83 80 79 78 79 82 83 85
34 31 35 36 39 40 44 49 48 50 50 51 51 53 54 56 57 58 60 61 62 63 66 67 68 69 71 74 76 78 80 81 83 82 82 83 83 85 80 84 86 89 91 89 88 96 96
33 27 24 30 36 37 42 43 49 51 48 50 54 58 48 60 60 63 64 65 67 69 70 72 75 76 76 79 80 82 84 85 88 85 89 90 85 90 93 95 93 94 95 90 96 97 100
35 28 37 26 32 36 39 47 48 51 54 59 60 59 61 62 64 66 68 70 71 73 74 77 78 79 81 82 84 86 87 89 92 95 94 92 96 94 96 103 100 99 100 103 104 104 92
41 34 37 34 31 32 37 44 51 54 58 61 60 63 63 65 68 70 72 73 76 78 80 81 81 82 83 85 86 88 91 93 96 99 100 103 103 101 94 103 102 100 98 95 97 103 105
31 34 33 42 44 44 44 45 47 51 53 57 63 65 67 69 71 73 76 78 78 80 83 85 86 87 87 88 90 95 97 97 96 97 92 105 99 99 102 96 96 95 94 95 96 95 97
43 44 43 44 44 47 50 53 52 55 56 58 60 64 66 68 69 72 75 78 80 82 75 81 87 90 92 95 85 88 82 98 96 97 97 106 103 109 99 108 95 96 95 96 95 89 90
45 44 41 47 51 50 54 50 57 58 61 60 64 65 65 70 74 76 79 81 82 82 88 85 85 78 84 80 85 88 92 94 101 101 93 95 98 100 100 102 96 95 95 94 93 92 95
49 47 48 50 50 52 55 55 57 60 60 64 67 65 71 62 66 78 83 78 80 77 77 84 76 80 87 91 97 99 92 99 102 97 100 102 103 102 101 102 102 91 94 97 94 97 104
46 49 45 48 49 58 59 63 58 64 68 63 63 64 67 70 69 72 76 77 78 79 79 82 86 93 98 92 101 96 97 98 101 99 102 102 104 105 101 92 99 107 106 102 101 101 104
Wind_Direction
283 309 263 230 234 229 225 235 235 238 242 243 245 249 251 253 256 260 263 265 266 268 272 267 275 272 277 279 282 285 289 290 293 295 290 293 292 292 293 295 292 289 288 290 274 272 279
316 282 264 228 227 229 228 230 235 238 241 243 246 250 249 253 255 261 261 264 263 266 267 272 273 274 277 278 282 285 283 289 289 293 290 287 289 289 292 294 292 289 283 282 277 281 292
313 299 261 233 228 229 229 228 226 235 227 241 246 249 252 252 255 250 254 257 262 263 267 267 272 272 274 280 282 286 287 285 291 287 285 284 288 289 293 292 293 290 287 278 284 272 287
313 285 259 240 227 231 227 226 227 223 230 241 246 246 251 255 256 251 255 256 261 263 262 267 268 272 275 277 280 280 286 285 285 283 282 284 288 290 293 293 292 291 292 280 276 280 263
305 274 255 237 244 226 226 226 226 224 228 228 231 242 248 249 254 261 257 254 257 259 260 262 266 270 273 273 275 279 281 281 281 280 282 287 288 290 292 294 293 294 292 284 273 272 268
294 269 251 234 224 227 228 228 228 227 227 228 230 238 239 244 254 252 255 251 254 257 258 261 260 260 262 269 272 274 277 279 277 278 282 285 287 290 293 294 296 293 288 284 278 275 272
243 261 249 233 223 224 224 230 226 229 229 232 232 234 235 244 245 251 251 254 254 254 256 256 256 270 266 269 270 273 275 274 274 276 280 284 287 291 292 295 292 288 285 281 280 275 274
263 259 245 231 228 226 223 223 225 229 229 232 230 232 238 240 241 240 244 243 247 251 254 253 255 261 263 266 270 274 273 271 273 277 280 284 286 288 291 290 287 285 282 279 278 277 275
257 252 240 230 228 223 239 228 228 227 231 231 231 234 233 242 238 243 246 242 243 246 249 251 254 259 272 266 270 271 270 272 275 277 280 283 287 289 290 289 286 284 280 277 275 273 273
242 243 237 227 221 247 227 224 224 226 232 233 234 236 240 242 237 243 244 244 250 248 250 253 255 260 262 263 265 267 271 272 276 281 280 284 286 287 289 288 285 282 279 277 274 270 270
230 222 233 227 221 221 228 224 227 228 233 233 235 235 236 240 243 246 247 250 252 254 251 255 256 257 259 260 263 266 269 273 276 278 281 283 286 287 287 286 283 279 278 278 274 272 269
227 230 230 221 222 230 228 233 223 228 234 235 236 237 237 238 240 245 248 251 256 260 253 255 255 255 257 259 264 266 270 273 276 279 282 284 285 283 283 282 279 277 275 274 275 272 272
224 215 219 221 219 223 225 225 231 234 235 238 238 240 240 241 243 246 248 249 249 252 252 256 257 259 261 260 266 273 272 274 277 280 282 284 283 282 280 279 280 278 276 277 278 277 274
212 202 219 220 223 225 222 227 233 231 235 238 239 241 242 241 242 245 285 248 250 252 255 255 258 260 264 269 270 272 274 276 278 279 281 281 280 280 279 279 280 278 277 276 275 275 277
188 212 217 219 220 229 226 226 232 228 230 234 238 240 242 243 245 249 250 252 254 256 274 257 260 263 266 269 272 273 275 277 277 279 278 278 277 279 283 279 280 277 278 279 279 277 273
205 212 223 223 222 229 226 232 228 229 229 236 236 240 244 244 247 249 251 254 255 256 258 261 264 267 269 270 271 272 275 275 276 277 277 278 278 279 280 280 280 282 281 282 280 277 273
214 215 218 242 229 221 223 229 232 232 231 247 240 242 244 247 251 252 266 252 258 261 262 264 267 266 267 268 270 272 273 274 275 277 280 279 280 280 281 280 280 281 281 281 281 281 278
212 214 219 216 225 225 220 238 232 235 236 239 239 241 243 246 250 252 254 256 265 268 265 264 266 267 268 270 271 273 274 277 277 280 279 281 282 282 283 282 282 281 281 280 281 282 285
217 217 228 226 225 223 221 225 232 234 236 243 243 244 246 248 252 256 258 260 261 264 266 267 268 269 270 270 272 273 274 276 277 279 281 281 283 283 282 282 283 282 280 281 281 286 287
217 223 229 232 228 233 225 236 234 238 253 245 252 250 252 257 256 257 259 260 262 264 266 268 270 271 271 272 273 274 276 277 279 281 283 282 283 284 284 284 284 285 287 288 287 287 286
221 225 227 225 229 233 233 234 239 242 246 252 254 255 257 256 257 258 261 263 263 266 267 268 269 270 271 271 273 276 276 278 279 282 284 285 285 286 289 289 288 287 285 286 288 285 285
222 224 231 234 234 241 236 239 238 243 250 251 255 253 266 258 259 260 263 264 265 266 268 269 271 272 272 273 276 278 278 279 280 285 283 283 286 286 284 286 287 285 283 289 288 287 283
223 226 233 234 236 239 243 239 243 244 246 247 253 254 255 258 260 263 263 265 267 268 271 271 272 273 273 275 276 277 280 283 282 282 286 288 286 287 288 285 288 285 281 288 286 289 291
227 235 237 237 239 243 244 245 244 246 248 251 255 257 258 260 261 263 264 267 266 268 270 273 275 276 277 277 280 282 282 282 282 283 283 283 281 282 279 283 282 287 288 291 286 291 290
229 237 238 241 246 247 247 246 248 250 253 254 254 257 259 260 262 263 265 267 272 273 273 275 276 278 278 282 283 281 282 282 280 281 280 283 284 289 289 289 286 283 282 283 284 285 287
238 244 246 241 241 245 249 250 256 252 254 254 256 258 261 263 265 266 268 270 272 274 284 283 281 280 280 280 283 281 288 284 286 278 284 288 290 289 287 287 288 290 289 288 288 290 289
240 241 250 246 249 253 251 255 259 260 259 264 266 268 273 271 270 271 272 273 276 280 277 280 279 285 288 288 283 282 280 283 281 282 287 289 289 290 290 290 292 291 289 289 290 286 281
235 245 254 256 261 264 260 263 263 264 266 265 266 270 268 283 287 272 273 276 282 289 281 286 288 283 279 284 284 285 293 284 287 292 292 290 290 289 290 292 292 290 284 292 288 287 293
253 249 267 264 266 262 263 260 268 265 263 279 282 279 274 286 280 277 289 281 286 291 287 285 286 278 281 289 281 291 291 290 289 290 289 290 290 291 293 296 292 295 295 296 295 294 290